Domov               UVHVVR             MKGP            O straneh              
ZDRAVSTVENO VARSTVO RASTLIN
  MREŽA AGROMET. POSTAJ
 ► PROGNOSTIČNA OBVESTILA
AGROMETEOROLOŠKI PODATKI -
ARSO
OBVLADOVANJE TVEGANJ ZARADI
NEUGODNIH VREMENSKIH RAZMER
  ► NARAVNE NESREČE
  ► SUŠA/MOČA
  ► NAMAKANJE
  ► ŽLED (gozdarstvo)
KARTOGRAFSKI PRIKAZI
SPLETNE POVEZAVE
PROJEKTI IN PUBLIKACIJE

AGROMETEOROLOŠKA MREŽA: VREMENSKE POSTAJE IN FENOLOŠKA OPAZOVANJA

Pregled podatkov za lokacijo Branik, meteorološka postaja 42394

Pregled senzorjev na lokaciji

ID Ime Zadnja
vrednost
Datum
zadnje
spremembe
Tip
senzorja
2188 Temperatura 2 m ( °C) 10,05 °C 24.10.2017 10:00 50YA
2189 Relativna vlaga 2 m (% RH) 73,44 % RH 24.10.2017 09:59 50YA
2190 Omočenost lista (U) 10 U 24.10.2017 10:00 A730WET
2191 Hitrost vetra (km/h) 0,56 km/h 24.10.2017 09:59 566.2S-176 (200km/h)
2192 Padavine 0.2 mm (mm) 0 mm 24.10.2017 09:59 Rain-O-Matic
2193 Smer vetra (°) 69,56 ° 24.10.2017 09:59 566.2S-130

Pregled podatkov zadnjih 24 ur

Zap.
št.
Datum in čas Branik
Hitrost
vetra
Omočenost
lista
Padavine
0.2
mm
Relativna
vlaga
2
m
Smer
vetra
Temperatura
2
m
0 24.10.2017 09:00 0,56 10 0 73,44 69,56 10,05
1 24.10.2017 08:30 0,27 10 0 80,45 323,65 8,21
2 24.10.2017 08:00 0,31 10 0 89,4 10,71 6,12
3 24.10.2017 07:30 1,06 10 0 98,84 66,75 3,96
4 24.10.2017 07:00 1,17 10 0 100 51,03 2,7
5 24.10.2017 06:30 0,41 10 0 100 85,21 2,35
6 24.10.2017 06:00 0,27 10 0 100 53,76 2,7
7 24.10.2017 05:30 0,69 10 0 100 79,88 3,29
8 24.10.2017 05:00 0,59 10 0 100 109,32 3,28
9 24.10.2017 04:30 0,38 10 0 100 332,25 3,05
10 24.10.2017 04:00 0,31 10 0 100 128,17 3,54
11 24.10.2017 03:30 0,19 10 0 100 93,61 3,71
12 24.10.2017 03:00 0,53 10 0 100 74,2 4,58
13 24.10.2017 02:30 0,18 10 0 100 68,81 4,57
14 24.10.2017 02:00 0,21 10 0 100 61,43 4,62
15 24.10.2017 01:30 0,28 10 0 100 78,54 4,93
16 24.10.2017 01:00 0,51 10 0 100 33,87 5
17 24.10.2017 00:30 0,24 10 0 100 33,65 5,11
18 24.10.2017 00:00 0,18 10 0 100 66,83 5,87
19 23.10.2017 23:30 0,32 10 0 100 66,45 5,74
20 23.10.2017 23:00 0,18 10 0 100 338,42 5,53
21 23.10.2017 22:30 0,18 10 0 100 338,42 5,78
22 23.10.2017 22:00 0,18 10 0 100 338,42 6,08
23 23.10.2017 21:30 0,18 10 0 100 338,97 6,07
24 23.10.2017 21:00 0,18 10 0 100 338,99 6,02
25 23.10.2017 20:30 0,18 10 0 100 338,98 6,58
26 23.10.2017 20:00 0,43 10 0 100 338,99 7,38
27 23.10.2017 19:30 0,38 10 0 100 338,82 7,66
28 23.10.2017 19:00 0,27 10 0 100 336,37 8,07
29 23.10.2017 18:30 0,31 7 0 100 93,56 8,64
30 23.10.2017 18:00 0,39 3 0 99,94 85,88 9,05
31 23.10.2017 17:30 0,13 1 0 94,66 166,86 10,06
32 23.10.2017 17:00 0,12 0 0 85,31 166,9 11,27
33 23.10.2017 16:30 0,58 0 0 76,54 166,9 12,31
34 23.10.2017 16:00 1,24 0 0 73,01 167,06 12,98
35 23.10.2017 15:30 1,1 0 0 68,71 169,58 15,13
36 23.10.2017 15:00 0,61 0 0 66,48 184,66 16,22
37 23.10.2017 14:30 0,25 0 0 67,22 217,87 15,89
38 23.10.2017 14:00 1,95 0 0 55,55 235,11 16,49
39 23.10.2017 13:30 3,69 0 0 50,94 281,58 17,3
40 23.10.2017 13:00 1,63 0 0 45,48 274,2 18,36
41 23.10.2017 12:30 0,81 0 0 48,14 340,24 17,21
42 23.10.2017 12:00 2,06 0 0 51,48 346,29 16,27
43 23.10.2017 11:30 3,14 0 0 53,79 359,2 15,54
© 2011 Ministrstvo za kmetijstvo, gozdarstvo in prehrano. Vse pravice pridržane.